Location: Newark
(35.8833°N, 14.5000°E)
Time: 20:32:44
(UTC+00:00)

Altair - Pass Details

Date: 28 November 2019
Orbit: 1502 x 1682 km, 47.2° (Epoch: 10 December)

Event Time Altitude Azimuth Distance (km) Brightness Sun altitude
Rises 00:13:47 0° 252° (WSW) 4,692 - -66.5°
Reaches altitude 10° 00:16:56 10° 256° (WSW) 3,692 - -66.0°
Maximum altitude 00:26:03 60° 335° (NNW) 1,695 - -64.4°
Exits shadow 00:35:04 10° 55° (NE) 3,648 9.7 -62.7°
Drops below altitude 10° 00:35:05 10° 55° (NE) 3,655 9.7 -62.7°
Sets 00:38:12 0° 59° (ENE) 4,644 10.4 -62.2°
